User: anonymous   Login
Location: Allison Elementary School
(34.0784°N, 117.7317°W)
Time: 15:00:58
(UTC+00:00)
Language:

Cosmos 1072 Rocket - Orbit

View from above orbital plane
View from above orbital plane
View from above satellite
View from above satellite

Ground track
Ground track

The orbit data is extracted from the following two-line orbital elements,

1 11239U 79003B   20022.50264544  .00000019  00000-0  44023-5 0  9999
2 11239  82.9388 103.9291 0039403 260.5957 110.5432 13.75844088 58393
Epoch (UTC): 22 January 2020 12:03:48
Eccentricity: 0.0039403
inclination: 82.9388°
perigee height: 949 km
apogee height: 1007 km
right ascension of ascending node: 103.9291°
argument of perigee: 260.5957°
revolutions per day: 13.75844088
mean anomaly at epoch: 110.5432°
orbit number at epoch: 5839

The dashed part of the orbit path shows where the satellite is in the earth's shadow,  

DLR